Location: Saint-Restitut
(44.3351°N, 4.7915°E)
Time: 07:59:59
(UTC+00:00)

COSMOS 2428 - Pass Details

Date: 03 February 2023
Orbit: 843 x 858 km, 70.9° (Epoch: 27 March)

Event Time Altitude Azimuth Distance (km) Brightness Sun altitude
Rises 18:26:02 0° 168° (SSE) 3,389 5.8 -16.9°
Reaches altitude 10° 18:28:51 10° 156° (SSE) 2,457 4.9 -17.4°
Enters shadow 18:32:23 24° 119° (ESE) 1,674 3.8 -18.1°
